Flag for United Kingdom Weather past 2 weeks in Reading, England, United Kingdom

Now
39 °F

Passing clouds.


Feels Like: 36 °F
Forecast: 44 / 58 °F
Wind: 5 mph from South

Location: Benson

Current Time: May 30, 2015 at 3:56:30 AM

Latest Report: May 30, 2015 at 2:50 AM


Visibility: N/A

Pressure: 29.86 "Hg

Humidity: 100%

Dew point: 39 °F

Location of ReadingLocation

Historic Weather in Reading — Graph

°F

Reading temperature yesterday

Maximum temperature yesterday: 55 °F (at 3:50 PM)
Minimum temperature yesterday: 41 °F (at 11:50 PM)
Average temperature yesterday: 50 °F

Past Weeks' High & Low Weather Summary

 TemperatureHumidityPressure
High66 °F (May 22, 4:50 PM)100% (May 15, 5:50 AM)30.36 "Hg (May 15, 5:50 AM)
Low34 °F (May 21, 3:50 AM)39% (May 16, 4:50 PM)29.56 "Hg (May 18, 11:50 AM)
Average52 °F74%30.08 "Hg
* Reported May 15 1:50 AM — May 30 1:50 AM, Reading, Weather by CustomWeather, © 2015

Note: Actual official high and low records may vary slightly from our data, if they occured in-between our weather recording intervals... More about our weather records

Advertising

Reading weather history for previous 24 hours

 ConditionsComfort  
Time TempWeatherWind HumidityBarometerVisibility
1:50 AM
Sat, May 30
41 °FClear.3 mph93%29.86 "HgN/A
12:50 AM41 °FClear.5 mph87%29.86 "HgN/A
11:50 PM
Fri, May 29
41 °FClear.1 mph81%29.86 "HgN/A
10:50 PM43 °FClear.3 mph81%29.83 "HgN/A
9:50 PM48 °FSunny.6 mph66%29.83 "HgN/A
8:50 PM52 °FPassing clouds.7 mph62%29.80 "HgN/A
7:50 PM52 °FPartly sunny.6 mph67%29.77 "HgN/A
6:50 PM54 °FSunny.7 mph67%29.77 "HgN/A
5:50 PM55 °FScattered clouds.12 mph59%29.74 "HgN/A
4:50 PM55 °FScattered clouds.12 mph63%29.71 "HgN/A
3:50 PM55 °FScattered clouds.13 mph67%29.71 "HgN/A
2:50 PM54 °FScattered clouds.10 mph77%29.68 "HgN/A
1:50 PM54 °FPartly sunny.15 mph77%29.68 "HgN/A
12:50 PM52 °FScattered clouds.13 mph82%29.68 "HgN/A
11:50 AM52 °FLight rain. Broken clouds.16 mph88%29.68 "HgN/A
10:50 AM52 °FRain. More clouds than sun.18 mph88%29.65 "Hg4 mi
9:50 AM50 °FRain. More clouds than sun.17 mph88%29.71 "HgN/A
8:50 AM50 °FLight rain. Mostly cloudy.12 mph82%29.74 "HgN/A
7:50 AM50 °FBroken clouds.12 mph82%29.77 "HgN/A
6:50 AM48 °FSunny.10 mph82%29.80 "Hg10 mi
5:50 AM46 °FClear.7 mph87%29.80 "Hg10 mi
4:50 AM45 °FClear.7 mph93%29.83 "Hg10 mi
3:50 AM45 °FOvercast.6 mph93%29.86 "HgN/A
Weather by CustomWeather, © 2015

See weather overviewHow to use our weather pages